Location: Country View Observatory
(32.9873°N, 83.6444°W)
Time: 01:24:15
(UTC-04:00)

ISS - Pass Details

Date: 17 September 2019
Orbit: 411 x 421 km, 51.6° (Epoch: 16 October)

Event Time Altitude Azimuth Distance (km) Brightness Sun altitude
Rises 20:44:20 0° 212° (SSW) 2,325 0.3 -14.5°
Reaches altitude 10° 20:46:27 10° 205° (SSW) 1,467 -0.9 -15.0°
Maximum altitude 20:49:36 43° 132° (SE) 582 -3.5 -15.6°
Enters shadow 20:50:11 39° 101° (E) 632 -3.4 -15.7°
